TimePST,TemperatureF,Dew PointF,Humidity,Sea Level PressureIn,VisibilityMPH,Wind Direction,Wind SpeedMPH,Gust SpeedMPH,PrecipitationIn,Events,Conditions,WindDirDegrees,DateUTC
12:15 AM,19.4,17.6,93,30.04,10.0,SE,3.5,-,N/A,,Scattered Clouds,130,2014-02-05 08:15:00
12:35 AM,19.4,17.6,93,30.04,10.0,Calm,Calm,-,N/A,,Clear,0,2014-02-05 08:35:00
12:55 AM,17.6,15.8,93,30.04,10.0,Calm,Calm,-,N/A,,Clear,0,2014-02-05 08:55:00
1:15 AM,15.8,14.0,93,30.03,10.0,SE,3.5,-,N/A,,Clear,130,2014-02-05 09:15:00
1:35 AM,17.6,12.2,79,30.03,10.0,Calm,Calm,-,N/A,,Clear,0,2014-02-05 09:35:00
1:55 AM,14.0,12.2,93,30.03,10.0,Calm,Calm,-,N/A,,Clear,0,2014-02-05 09:55:00
2:15 AM,14.0,14.0,100,30.03,10.0,South,3.5,-,N/A,,Clear,180,2014-02-05 10:15:00
2:35 AM,10.4,8.6,92,30.03,10.0,Calm,Calm,-,N/A,,Clear,0,2014-02-05 10:35:00
2:55 AM,12.2,10.4,92,30.03,10.0,Calm,Calm,-,N/A,,Clear,0,2014-02-05 10:55:00
3:15 AM,10.4,8.6,92,30.02,10.0,SE,3.5,-,N/A,,Clear,130,2014-02-05 11:15:00
3:35 AM,10.4,8.6,92,30.02,10.0,WSW,3.5,-,N/A,,Clear,250,2014-02-05 11:35:00
3:55 AM,8.6,5.0,85,30.02,10.0,Calm,Calm,-,N/A,,Clear,0,2014-02-05 11:55:00
4:15 AM,8.6,5.0,85,30.01,10.0,Calm,Calm,-,N/A,,Clear,0,2014-02-05 12:15:00
4:35 AM,8.6,6.8,92,30.03,10.0,Calm,Calm,-,N/A,,Scattered Clouds,0,2014-02-05 12:35:00
4:55 AM,6.8,3.2,85,30.04,10.0,Calm,Calm,-,N/A,,Mostly Cloudy,0,2014-02-05 12:55:00
5:15 AM,6.8,3.2,85,30.03,10.0,Calm,Calm,-,N/A,,Scattered Clouds,0,2014-02-05 13:15:00
5:35 AM,6.8,3.2,85,30.04,10.0,Calm,Calm,-,N/A,,Scattered Clouds,0,2014-02-05 13:35:00
6:55 AM,5.0,1.4,85,30.06,10.0,Calm,Calm,-,N/A,,Scattered Clouds,0,2014-02-05 14:55:00
7:55 AM,8.6,5.0,85,30.07,10.0,Calm,Calm,-,N/A,,Scattered Clouds,0,2014-02-05 15:55:00
9:45 AM,17.6,14.0,86,30.06,10.0,Calm,Calm,-,N/A,,Clear,0,2014-02-05 17:45:00
11:45 AM,35.6,30.2,81,30.04,10.0,Calm,Calm,-,N/A,,Partly Cloudy,0,2014-02-05 19:45:00
1:55 PM,37.4,10.4,33,29.99,10.0,WSW,5.8,18.4,N/A,,Scattered Clouds,250,2014-02-05 21:55:00
2:50 PM,37.4,10.4,33,29.99,10.0,West,10.4,19.6,N/A,,Partly Cloudy,260,2014-02-05 22:50:00
3:50 PM,35.6,14.0,41,29.99,10.0,West,6.9,-,N/A,,Mostly Cloudy,270,2014-02-05 23:50:00
4:45 PM,33.8,15.8,48,29.99,10.0,West,8.1,-,N/A,,Overcast,280,2014-02-06 00:45:00
4:55 PM,32.0,17.6,55,29.99,10.0,West,3.5,-,N/A,,Clear,270,2014-02-06 00:55:00
5:15 PM,32.0,17.6,55,30.00,10.0,WSW,5.8,-,N/A,,Mostly Cloudy,250,2014-02-06 01:15:00
5:35 PM,32.0,17.6,55,30.00,10.0,West,3.5,-,N/A,,Overcast,270,2014-02-06 01:35:00
5:55 PM,32.0,17.6,55,30.00,10.0,West,3.5,-,N/A,,Overcast,280,2014-02-06 01:55:00
6:15 PM,32.0,15.8,51,30.00,10.0,Calm,Calm,-,N/A,,Overcast,0,2014-02-06 02:15:00
6:35 PM,30.2,17.6,60,30.00,10.0,Calm,Calm,-,N/A,,Overcast,0,2014-02-06 02:35:00
6:55 PM,28.4,19.4,69,30.00,10.0,Calm,Calm,-,N/A,,Mostly Cloudy,0,2014-02-06 02:55:00
7:15 PM,28.4,19.4,69,29.99,10.0,Calm,Calm,-,N/A,,Mostly Cloudy,0,2014-02-06 03:15:00
7:35 PM,28.4,19.4,69,30.00,10.0,Calm,Calm,-,N/A,,Overcast,0,2014-02-06 03:35:00
7:55 PM,28.4,19.4,69,30.00,10.0,Calm,Calm,-,N/A,,Overcast,0,2014-02-06 03:55:00
8:15 PM,28.4,19.4,69,30.00,10.0,Calm,Calm,-,N/A,,Overcast,0,2014-02-06 04:15:00
8:35 PM,26.6,21.2,80,30.00,10.0,Calm,Calm,-,N/A,,Overcast,0,2014-02-06 04:35:00
8:55 PM,28.4,19.4,69,29.99,10.0,Calm,Calm,-,N/A,,Overcast,0,2014-02-06 04:55:00
9:15 PM,28.4,19.4,69,30.00,10.0,Calm,Calm,-,N/A,,Overcast,0,2014-02-06 05:15:00
9:35 PM,28.4,19.4,69,29.99,10.0,Calm,Calm,-,N/A,,Overcast,0,2014-02-06 05:35:00
9:55 PM,28.4,19.4,69,29.98,10.0,Calm,Calm,-,N/A,,Overcast,0,2014-02-06 05:55:00
10:15 PM,30.2,17.6,60,29.98,10.0,Calm,Calm,-,N/A,,Overcast,0,2014-02-06 06:15:00
10:35 PM,28.4,19.4,69,29.97,10.0,WSW,3.5,-,N/A,,Overcast,240,2014-02-06 06:35:00
10:55 PM,30.2,17.6,60,29.97,10.0,West,3.5,-,N/A,,Overcast,270,2014-02-06 06:55:00
11:15 PM,28.4,19.4,69,29.96,10.0,West,3.5,-,N/A,,Overcast,270,2014-02-06 07:15:00
11:35 PM,28.4,19.4,69,29.95,10.0,West,4.6,-,N/A,,Overcast,270,2014-02-06 07:35:00
11:55 PM,28.4,19.4,69,29.95,10.0,West,3.5,-,N/A,,Overcast,270,2014-02-06 07:55:00